Time,TemperatureF,DewpointF,PressureIn,WindDirection,WindDirectionDegrees,WindSpeedMPH,WindSpeedGustMPH,Humidity,HourlyPrecipIn,Conditions,Clouds,dailyrainin,SoftwareType,DateUTC
2013-01-20 00:04:00,32.4,19.4,30.24,WNW,285,3.0,4.5,58,0.00,,,0.00,WSDL version 420,2013-01-20 05:04:00,
2013-01-20 00:09:00,32.5,19.4,30.24,WNW,295,2.1,4.5,58,0.00,,,0.00,WSDL version 420,2013-01-20 05:09:00,
2013-01-20 00:14:00,32.5,19.4,30.24,West,273,1.2,3.1,58,0.00,,,0.00,WSDL version 420,2013-01-20 05:14:00,
2013-01-20 00:19:00,32.5,19.2,30.24,WNW,287,2.5,4.0,58,0.00,,,0.00,WSDL version 420,2013-01-20 05:19:00,
2013-01-20 00:24:00,32.5,19.3,30.24,WNW,293,1.9,4.3,58,0.00,,,0.00,WSDL version 420,2013-01-20 05:24:00,
2013-01-20 00:29:00,32.5,19.0,30.24,NW,318,2.5,4.3,56,0.00,,,0.00,WSDL version 420,2013-01-20 05:29:00,
2013-01-20 00:34:00,32.9,19.1,30.24,West,264,1.9,4.0,56,0.00,,,0.00,WSDL version 420,2013-01-20 05:34:00,
2013-01-20 00:39:00,33.1,19.2,30.24,West,280,2.4,6.0,56,0.00,,,0.00,WSDL version 420,2013-01-20 05:39:00,
2013-01-20 00:44:00,33.0,19.1,30.24,WNW,293,1.6,6.0,56,0.00,,,0.00,WSDL version 420,2013-01-20 05:44:00,
2013-01-20 00:49:00,32.8,18.9,30.21,WNW,298,1.5,4.0,56,0.00,,,0.00,WSDL version 420,2013-01-20 05:49:00,
2013-01-20 00:54:00,32.7,18.7,30.21,West,267,3.0,4.0,56,0.00,,,0.00,WSDL version 420,2013-01-20 05:54:00,
2013-01-20 00:59:00,32.6,18.9,30.21,WNW,290,2.2,4.0,57,0.00,,,0.00,WSDL version 420,2013-01-20 05:59:00,
2013-01-20 01:04:00,32.2,18.4,30.21,West,273,2.2,3.6,57,0.00,,,0.00,WSDL version 420,2013-01-20 06:04:00,
2013-01-20 01:09:00,32.0,19.7,30.20,WNW,293,2.0,3.6,57,0.00,,,0.00,WSDL version 420,2013-01-20 06:09:00,
2013-01-20 01:14:00,32.0,20.1,30.20,WNW,295,2.5,3.6,57,0.00,,,0.00,WSDL version 420,2013-01-20 06:14:00,
2013-01-20 01:19:00,32.4,18.6,30.20,WNW,295,1.8,3.6,57,0.00,,,0.00,WSDL version 420,2013-01-20 06:19:00,
2013-01-20 01:24:00,32.5,18.6,30.20,West,262,2.5,3.6,57,0.00,,,0.00,WSDL version 420,2013-01-20 06:24:00,
2013-01-20 01:29:00,32.2,19.1,30.20,West,280,3.0,4.0,56,0.00,,,0.00,WSDL version 420,2013-01-20 06:29:00,
2013-01-20 01:34:00,32.0,19.3,30.20,West,264,2.3,4.0,56,0.00,,,0.00,WSDL version 420,2013-01-20 06:34:00,
2013-01-20 01:39:00,31.8,19.7,30.20,NW,321,3.4,4.3,57,0.00,,,0.00,WSDL version 420,2013-01-20 06:39:00,
2013-01-20 01:44:00,32.1,18.9,30.20,WNW,287,2.5,5.6,56,0.00,,,0.00,WSDL version 420,2013-01-20 06:44:00,
2013-01-20 01:49:00,32.8,18.1,30.20,West,273,3.0,5.6,55,0.00,,,0.00,WSDL version 420,2013-01-20 06:49:00,
2013-01-20 01:54:00,33.0,18.1,30.20,WNW,295,2.6,4.0,54,0.00,,,0.00,WSDL version 420,2013-01-20 06:54:00,
2013-01-20 01:59:00,33.1,17.8,30.20,WNW,293,3.2,5.4,52,0.00,,,0.00,WSDL version 420,2013-01-20 06:59:00,
2013-01-20 02:04:00,33.3,17.7,30.20,WNW,303,2.6,5.8,52,0.00,,,0.00,WSDL version 420,2013-01-20 07:04:00,
2013-01-20 02:09:00,33.8,17.5,30.20,WSW,245,2.6,5.8,50,0.00,,,0.00,WSDL version 420,2013-01-20 07:09:00,
2013-01-20 02:14:00,34.3,17.3,30.20,NW,308,2.4,5.8,49,0.00,,,0.00,WSDL version 420,2013-01-20 07:14:00,
2013-01-20 02:19:00,34.3,17.1,30.20,WNW,293,2.8,4.9,48,0.00,,,0.00,WSDL version 420,2013-01-20 07:19:00,
2013-01-20 02:24:00,34.4,16.9,30.20,SW,219,2.8,5.6,47,0.00,,,0.00,WSDL version 420,2013-01-20 07:24:00,
2013-01-20 02:29:00,34.6,16.2,30.20,WNW,293,2.2,5.6,47,0.00,,,0.00,WSDL version 420,2013-01-20 07:29:00,
2013-01-20 02:34:00,34.7,16.1,30.20,NW,308,1.6,5.4,46,0.00,,,0.00,WSDL version 420,2013-01-20 07:34:00,
2013-01-20 02:39:00,34.6,16.4,30.20,WNW,283,2.2,6.0,48,0.00,,,0.00,WSDL version 420,2013-01-20 07:39:00,
2013-01-20 02:44:00,34.6,15.6,30.20,WSW,254,2.7,6.0,45,0.00,,,0.00,WSDL version 420,2013-01-20 07:44:00,
2013-01-20 02:49:00,34.9,15.4,30.20,WSW,250,2.2,5.6,44,0.00,,,0.00,WSDL version 420,2013-01-20 07:49:00,
2013-01-20 02:54:00,35.2,15.2,30.20,West,264,2.7,5.6,43,0.00,,,0.00,WSDL version 420,2013-01-20 07:54:00,
2013-01-20 02:59:00,35.2,15.4,30.20,WSW,253,1.7,4.3,43,0.00,,,0.00,WSDL version 420,2013-01-20 07:59:00,
2013-01-20 03:04:00,35.2,15.3,30.20,West,278,1.2,4.0,44,0.00,,,0.00,WSDL version 420,2013-01-20 08:04:00,
2013-01-20 03:09:00,35.3,15.1,30.20,West,262,0.4,4.0,43,0.00,,,0.00,WSDL version 420,2013-01-20 08:09:00,
2013-01-20 03:14:00,35.3,14.9,30.20,West,275,2.8,4.0,42,0.00,,,0.00,WSDL version 420,2013-01-20 08:14:00,
2013-01-20 03:19:00,35.3,14.9,30.20,WSW,251,2.2,3.6,42,0.00,,,0.00,WSDL version 420,2013-01-20 08:19:00,
2013-01-20 03:24:00,35.3,14.7,30.20,West,270,2.6,5.8,42,0.00,,,0.00,WSDL version 420,2013-01-20 08:24:00,
2013-01-20 03:29:00,35.3,14.8,30.20,WNW,286,2.2,5.8,43,0.00,,,0.00,WSDL version 420,2013-01-20 08:29:00,
2013-01-20 03:34:00,35.1,14.7,30.20,West,275,1.3,4.5,43,0.00,,,0.00,WSDL version 420,2013-01-20 08:34:00,
2013-01-20 03:39:00,34.9,14.5,30.20,West,281,1.4,3.8,42,0.00,,,0.00,WSDL version 420,2013-01-20 08:39:00,
2013-01-20 03:44:00,35.1,14.3,30.20,West,264,2.2,3.8,42,0.00,,,0.00,WSDL version 420,2013-01-20 08:44:00,
2013-01-20 03:49:00,34.9,14.7,30.20,NW,325,2.4,3.8,44,0.00,,,0.00,WSDL version 420,2013-01-20 08:49:00,
2013-01-20 03:54:00,35.1,13.8,30.20,West,278,1.6,4.0,41,0.00,,,0.00,WSDL version 420,2013-01-20 08:54:00,
2013-01-20 03:59:00,36.0,14.4,30.20,West,275,3.3,4.9,41,0.00,,,0.00,WSDL version 420,2013-01-20 08:59:00,
2013-01-20 04:04:00,36.0,14.2,30.20,NNW,335,1.9,4.9,41,0.00,,,0.00,WSDL version 420,2013-01-20 09:04:00,
2013-01-20 04:09:00,35.7,14.2,30.20,SW,235,1.8,4.3,40,0.00,,,0.00,WSDL version 420,2013-01-20 09:09:00,
2013-01-20 04:14:00,36.0,14.3,30.20,WNW,293,2.1,3.8,41,0.00,,,0.00,WSDL version 420,2013-01-20 09:14:00,
2013-01-20 04:19:00,35.9,14.5,30.20,WSW,248,1.2,4.9,41,0.00,,,0.00,WSDL version 420,2013-01-20 09:19:00,
2013-01-20 04:24:00,36.4,14.1,30.20,SSW,199,0.6,4.9,40,0.00,,,0.00,WSDL version 420,2013-01-20 09:24:00,
2013-01-20 04:29:00,36.6,14.5,30.20,WNW,295,2.3,3.6,40,0.00,,,0.00,WSDL version 420,2013-01-20 09:29:00,
2013-01-20 04:34:00,36.9,13.9,30.20,West,259,2.8,4.0,39,0.00,,,0.00,WSDL version 420,2013-01-20 09:34:00,
2013-01-20 04:39:00,36.8,13.3,30.20,NW,307,2.0,5.8,34,0.00,,,0.00,WSDL version 420,2013-01-20 09:39:00,
2013-01-20 04:44:00,37.6,11.7,30.20,WSW,250,2.4,6.5,34,0.00,,,0.00,WSDL version 420,2013-01-20 09:44:00,
2013-01-20 04:49:00,37.6,12.6,30.17,NW,305,2.6,6.5,34,0.00,,,0.00,WSDL version 420,2013-01-20 09:49:00,
2013-01-20 04:54:00,37.5,11.8,30.17,WNW,301,2.3,6.5,33,0.00,,,0.00,WSDL version 420,2013-01-20 09:54:00,
2013-01-20 04:59:00,38.3,10.5,30.17,WSW,240,2.9,6.5,31,0.00,,,0.00,WSDL version 420,2013-01-20 09:59:00,
2013-01-20 05:04:00,38.4,11.3,30.17,West,273,3.9,7.4,33,0.00,,,0.00,WSDL version 420,2013-01-20 10:04:00,
2013-01-20 05:09:00,37.8,12.2,30.17,West,262,3.9,7.4,34,0.00,,,0.00,WSDL version 420,2013-01-20 10:09:00,
2013-01-20 05:14:00,37.4,11.8,30.18,West,280,2.8,5.6,33,0.00,,,0.00,WSDL version 420,2013-01-20 10:14:00,
2013-01-20 05:19:00,37.2,11.8,30.18,WSW,244,3.9,6.0,35,0.00,,,0.00,WSDL version 420,2013-01-20 10:19:00,
2013-01-20 05:24:00,37.5,11.0,30.18,NW,307,2.4,6.0,33,0.00,,,0.00,WSDL version 420,2013-01-20 10:24:00,
2013-01-20 05:29:00,37.9,11.3,30.18,West,260,3.0,7.6,33,0.00,,,0.00,WSDL version 420,2013-01-20 10:29:00,
2013-01-20 05:34:00,37.9,11.2,30.21,WNW,288,3.2,7.6,33,0.00,,,0.00,WSDL version 420,2013-01-20 10:34:00,
2013-01-20 05:39:00,37.8,11.3,30.22,West,281,2.8,5.8,34,0.00,,,0.00,WSDL version 420,2013-01-20 10:39:00,
2013-01-20 05:44:00,37.3,11.5,30.22,West,278,2.8,5.8,34,0.00,,,0.00,WSDL version 420,2013-01-20 10:44:00,
2013-01-20 05:49:00,37.1,12.0,30.18,WSW,253,3.9,7.2,36,0.00,,,0.00,WSDL version 420,2013-01-20 10:49:00,
2013-01-20 05:54:00,37.1,12.2,30.19,West,278,1.9,7.2,36,0.00,,,0.00,WSDL version 420,2013-01-20 10:54:00,
2013-01-20 05:59:00,37.2,12.3,30.19,WSW,239,3.1,6.0,36,0.00,,,0.00,WSDL version 420,2013-01-20 10:59:00,
2013-01-20 06:04:00,37.5,12.3,30.19,WNW,299,3.8,6.0,36,0.00,,,0.00,WSDL version 420,2013-01-20 11:04:00,
2013-01-20 06:09:00,37.2,13.3,30.19,West,278,2.0,5.8,37,0.00,,,0.00,WSDL version 420,2013-01-20 11:09:00,
2013-01-20 06:14:00,37.4,13.4,30.19,NW,309,2.6,4.7,39,0.00,,,0.00,WSDL version 420,2013-01-20 11:14:00,
2013-01-20 06:19:00,37.1,13.4,30.19,WSW,258,2.6,5.4,37,0.00,,,0.00,WSDL version 420,2013-01-20 11:19:00,
2013-01-20 06:24:00,37.4,14.1,30.19,WSW,245,3.1,6.3,39,0.00,,,0.00,WSDL version 420,2013-01-20 11:24:00,
2013-01-20 06:29:00,37.8,14.9,30.19,SSE,150,2.9,7.6,39,0.00,,,0.00,WSDL version 420,2013-01-20 11:29:00,
2013-01-20 06:34:00,38.1,15.6,30.19,WNW,293,2.4,7.6,40,0.00,,,0.00,WSDL version 420,2013-01-20 11:34:00,
2013-01-20 06:39:00,38.2,15.7,30.19,WSW,238,3.6,8.1,39,0.00,,,0.00,WSDL version 420,2013-01-20 11:39:00,
2013-01-20 06:44:00,39.2,16.5,30.19,NNW,333,3.2,13.0,40,0.00,,,0.00,WSDL version 420,2013-01-20 11:44:00,
2013-01-20 06:49:00,39.3,16.5,30.19,WNW,301,3.9,13.0,39,0.00,,,0.00,WSDL version 420,2013-01-20 11:49:00,
2013-01-20 06:54:00,39.4,16.7,30.19,West,270,2.5,8.9,39,0.00,,,0.00,WSDL version 420,2013-01-20 11:54:00,
2013-01-20 06:59:00,39.1,16.8,30.19,West,273,3.5,8.9,40,0.00,,,0.00,WSDL version 420,2013-01-20 11:59:00,
2013-01-20 07:04:00,39.0,16.7,30.19,NW,305,1.8,5.6,40,0.00,,,0.00,WSDL version 420,2013-01-20 12:04:00,
2013-01-20 07:09:00,39.1,17.1,30.19,WSW,245,3.8,6.5,40,0.00,,,0.00,WSDL version 420,2013-01-20 12:09:00,
2013-01-20 07:14:00,39.2,17.2,30.19,WNW,295,3.4,6.5,41,0.00,,,0.00,WSDL version 420,2013-01-20 12:14:00,
2013-01-20 07:19:00,39.0,17.3,30.19,WNW,298,2.4,6.3,41,0.00,,,0.00,WSDL version 420,2013-01-20 12:19:00,
2013-01-20 07:24:00,39.2,17.6,30.19,West,281,3.0,7.4,41,0.00,,,0.00,WSDL version 420,2013-01-20 12:24:00,
2013-01-20 07:29:00,39.3,17.6,30.19,SW,220,4.9,10.1,41,0.00,,,0.00,WSDL version 420,2013-01-20 12:29:00,
2013-01-20 07:34:00,39.3,18.0,30.22,WSW,239,5.4,10.1,42,0.00,,,0.00,WSDL version 420,2013-01-20 12:34:00,
2013-01-20 07:39:00,39.5,18.1,30.22,WSW,253,1.2,8.7,42,0.00,,,0.00,WSDL version 420,2013-01-20 12:39:00,
2013-01-20 07:44:00,39.2,18.3,30.22,WNW,295,2.2,8.1,43,0.00,,,0.00,WSDL version 420,2013-01-20 12:44:00,
2013-01-20 07:49:00,39.2,18.3,30.22,WSW,256,1.9,6.3,43,0.00,,,0.00,WSDL version 420,2013-01-20 12:49:00,
2013-01-20 07:54:00,39.1,18.6,30.22,NW,307,3.3,6.3,44,0.00,,,0.00,WSDL version 420,2013-01-20 12:54:00,
2013-01-20 07:59:00,39.2,18.8,30.22,West,267,2.3,7.6,43,0.00,,,0.00,WSDL version 420,2013-01-20 12:59:00,
2013-01-20 08:04:00,39.2,18.9,30.22,West,260,4.5,7.8,44,0.00,,,0.00,WSDL version 420,2013-01-20 13:04:00,
2013-01-20 08:09:00,39.2,19.4,30.22,NW,318,2.0,7.8,45,0.00,,,0.00,WSDL version 420,2013-01-20 13:09:00,
2013-01-20 08:14:00,38.8,19.2,30.22,SSW,203,2.2,6.0,45,0.00,,,0.00,WSDL version 420,2013-01-20 13:14:00,
2013-01-20 08:19:00,39.1,19.3,30.22,NW,308,1.8,6.0,44,0.00,,,0.00,WSDL version 420,2013-01-20 13:19:00,
2013-01-20 08:24:00,39.0,19.5,30.22,WNW,301,2.5,4.3,45,0.00,,,0.00,WSDL version 420,2013-01-20 13:24:00,
2013-01-20 08:29:00,39.1,19.8,30.22,West,273,3.1,6.5,46,0.00,,,0.00,WSDL version 420,2013-01-20 13:29:00,
2013-01-20 08:34:00,39.2,19.6,30.22,SSW,205,2.5,7.6,45,0.00,,,0.00,WSDL version 420,2013-01-20 13:34:00,
2013-01-20 08:39:00,39.3,20.1,30.22,SSW,213,4.2,7.6,45,0.00,,,0.00,WSDL version 420,2013-01-20 13:39:00,
2013-01-20 08:44:00,39.4,20.2,30.22,SW,228,4.6,7.4,46,0.00,,,0.00,WSDL version 420,2013-01-20 13:44:00,
2013-01-20 08:49:00,39.6,20.5,30.22,North,10,3.4,7.2,46,0.00,,,0.00,WSDL version 420,2013-01-20 13:49:00,
2013-01-20 08:54:00,39.6,20.4,30.22,WSW,248,1.7,6.0,46,0.00,,,0.00,WSDL version 420,2013-01-20 13:54:00,
2013-01-20 08:59:00,39.9,20.9,30.22,West,264,3.9,9.8,46,0.00,,,0.00,WSDL version 420,2013-01-20 13:59:00,
2013-01-20 09:04:00,40.2,21.1,30.22,WSW,248,2.8,9.8,46,0.00,,,0.00,WSDL version 420,2013-01-20 14:04:00,
2013-01-20 09:09:00,40.9,21.5,30.22,NW,318,3.4,8.5,45,0.00,,,0.00,WSDL version 420,2013-01-20 14:09:00,
2013-01-20 09:14:00,42.0,22.2,30.22,West,268,1.5,7.2,45,0.00,,,0.00,WSDL version 420,2013-01-20 14:14:00,
2013-01-20 09:19:00,42.8,22.3,30.22,SW,222,1.9,12.1,44,0.00,,,0.00,WSDL version 420,2013-01-20 14:19:00,
2013-01-20 09:24:00,43.7,22.5,30.22,NNW,338,4.8,12.1,42,0.00,,,0.00,WSDL version 420,2013-01-20 14:24:00,
2013-01-20 09:29:00,44.2,22.4,30.21,SW,236,6.6,10.7,41,0.00,,,0.00,WSDL version 420,2013-01-20 14:29:00,
2013-01-20 09:34:00,44.5,22.2,30.21,SSW,208,4.9,10.7,40,0.00,,,0.00,WSDL version 420,2013-01-20 14:34:00,
2013-01-20 09:39:00,44.8,22.6,30.21,ENE,58,0.9,10.3,41,0.00,,,0.00,WSDL version 420,2013-01-20 14:39:00,
2013-01-20 09:44:00,45.5,22.9,30.21,SSW,208,5.6,9.8,40,0.00,,,0.00,WSDL version 420,2013-01-20 14:44:00,
2013-01-20 09:49:00,45.9,23.0,30.21,South,178,3.7,9.8,40,0.00,,,0.00,WSDL version 420,2013-01-20 14:49:00,
2013-01-20 09:54:00,46.2,23.2,30.21,SSE,160,1.1,9.6,40,0.00,,,0.00,WSDL version 420,2013-01-20 14:54:00,
2013-01-20 09:59:00,46.3,23.1,30.21,ESE,105,2.8,9.6,40,0.00,,,0.00,WSDL version 420,2013-01-20 14:59:00,
2013-01-20 10:04:00,46.4,22.9,30.21,West,260,5.9,8.7,39,0.00,,,0.00,WSDL version 420,2013-01-20 15:04:00,
2013-01-20 10:09:00,46.1,22.8,30.21,West,262,6.6,12.3,39,0.00,,,0.00,WSDL version 420,2013-01-20 15:09:00,
2013-01-20 10:14:00,46.1,22.6,30.21,NW,313,3.2,12.3,40,0.00,,,0.00,WSDL version 420,2013-01-20 15:14:00,
2013-01-20 10:19:00,46.6,23.0,30.21,NNE,17,4.8,9.4,39,0.00,,,0.00,WSDL version 420,2013-01-20 15:19:00,
2013-01-20 10:24:00,47.2,23.5,30.21,ESE,110,1.5,8.7,39,0.00,,,0.00,WSDL version 420,2013-01-20 15:24:00,
2013-01-20 10:29:00,47.4,23.7,30.21,West,273,3.3,8.7,39,0.00,,,0.00,WSDL version 420,2013-01-20 15:29:00,
2013-01-20 10:34:00,47.8,24.0,30.21,SSW,208,2.8,5.6,39,0.00,,,0.00,WSDL version 420,2013-01-20 15:34:00,
2013-01-20 10:39:00,47.8,23.6,30.21,WNW,288,5.0,10.5,38,0.00,,,0.00,WSDL version 420,2013-01-20 15:39:00,
2013-01-20 10:44:00,47.5,23.4,30.21,North,349,3.6,10.5,38,0.00,,,0.00,WSDL version 420,2013-01-20 15:44:00,
2013-01-20 10:49:00,47.5,23.5,30.21,WSW,240,3.1,8.5,39,0.00,,,0.00,WSDL version 420,2013-01-20 15:49:00,
2013-01-20 10:54:00,47.8,23.9,30.21,SSW,194,3.7,7.6,38,0.00,,,0.00,WSDL version 420,2013-01-20 15:54:00,
2013-01-20 10:59:00,48.5,24.3,30.21,SE,128,3.4,7.6,38,0.00,,,0.00,WSDL version 420,2013-01-20 15:59:00,
2013-01-20 11:04:00,48.7,24.2,30.21,SSW,208,2.4,7.6,38,0.00,,,0.00,WSDL version 420,2013-01-20 16:04:00,
2013-01-20 11:09:00,48.8,24.1,30.21,NW,323,3.3,7.2,37,0.00,,,0.00,WSDL version 420,2013-01-20 16:09:00,
2013-01-20 11:14:00,49.1,24.4,30.21,NNW,338,2.4,9.4,37,0.00,,,0.00,WSDL version 420,2013-01-20 16:14:00,
2013-01-20 11:19:00,49.6,24.5,30.21,West,267,3.6,9.6,37,0.00,,,0.00,WSDL version 420,2013-01-20 16:19:00,
2013-01-20 11:24:00,49.8,24.6,30.21,SW,233,2.7,9.6,37,0.00,,,0.00,WSDL version 420,2013-01-20 16:24:00,
2013-01-20 11:29:00,49.9,24.1,30.21,SSE,158,4.0,10.1,36,0.00,,,0.00,WSDL version 420,2013-01-20 16:29:00,
2013-01-20 11:34:00,50.6,25.3,30.21,SSW,200,4.0,10.1,37,0.00,,,0.00,WSDL version 420,2013-01-20 16:34:00,
2013-01-20 11:39:00,50.8,24.2,30.20,North,354,3.0,6.5,34,0.00,,,0.00,WSDL version 420,2013-01-20 16:39:00,
2013-01-20 11:44:00,51.0,24.5,30.20,SW,235,4.2,7.8,35,0.00,,,0.00,WSDL version 420,2013-01-20 16:44:00,
2013-01-20 11:49:00,50.9,23.4,30.20,SW,214,4.3,7.8,33,0.00,,,0.00,WSDL version 420,2013-01-20 16:49:00,
2013-01-20 11:54:00,51.2,24.1,30.20,NW,326,4.5,7.8,34,0.00,,,0.00,WSDL version 420,2013-01-20 16:54:00,
2013-01-20 11:59:00,51.2,24.2,30.20,South,174,4.1,9.8,34,0.00,,,0.00,WSDL version 420,2013-01-20 16:59:00,
2013-01-20 12:04:00,51.8,24.5,30.20,SE,127,3.5,9.8,33,0.00,,,0.00,WSDL version 420,2013-01-20 17:04:00,
2013-01-20 12:09:00,52.0,24.4,30.20,South,180,4.1,7.8,33,0.00,,,0.00,WSDL version 420,2013-01-20 17:09:00,
2013-01-20 12:14:00,52.1,24.1,30.20,ESE,123,5.2,7.8,32,0.00,,,0.00,WSDL version 420,2013-01-20 17:14:00,
2013-01-20 12:19:00,51.8,24.0,30.20,WNW,298,1.0,8.1,34,0.00,,,0.00,WSDL version 420,2013-01-20 17:19:00,
2013-01-20 12:24:00,52.3,24.0,30.20,SE,143,2.5,8.1,34,0.00,,,0.00,WSDL version 420,2013-01-20 17:24:00,
2013-01-20 12:29:00,52.4,23.2,30.20,SW,219,3.0,7.8,32,0.00,,,0.00,WSDL version 420,2013-01-20 17:29:00,
2013-01-20 12:34:00,52.8,24.1,30.17,West,260,3.3,7.8,32,0.00,,,0.00,WSDL version 420,2013-01-20 17:34:00,
2013-01-20 12:39:00,53.3,23.2,30.17,NNW,346,3.2,7.6,30,0.00,,,0.00,WSDL version 420,2013-01-20 17:39:00,
2013-01-20 12:44:00,53.8,23.9,30.17,South,170,1.9,4.3,33,0.00,,,0.00,WSDL version 420,2013-01-20 17:44:00,
2013-01-20 12:49:00,54.8,23.8,30.16,North,355,4.1,6.5,29,0.00,,,0.00,WSDL version 420,2013-01-20 17:49:00,
2013-01-20 12:54:00,55.3,22.6,30.16,ENE,59,2.7,6.5,27,0.00,,,0.00,WSDL version 420,2013-01-20 17:54:00,
2013-01-20 12:59:00,55.5,22.6,30.16,East,88,3.6,10.1,28,0.00,,,0.00,WSDL version 420,2013-01-20 17:59:00,
2013-01-20 13:04:00,54.9,22.0,30.16,South,172,2.6,10.1,28,0.00,,,0.00,WSDL version 420,2013-01-20 18:04:00,
2013-01-20 13:09:00,55.5,22.4,30.16,East,93,3.0,7.2,28,0.00,,,0.00,WSDL version 420,2013-01-20 18:09:00,
2013-01-20 13:14:00,55.3,22.1,30.16,WSW,253,4.3,11.4,27,0.00,,,0.00,WSDL version 420,2013-01-20 18:14:00,
2013-01-20 13:19:00,55.1,22.4,30.16,West,281,2.7,11.4,28,0.00,,,0.00,WSDL version 420,2013-01-20 18:19:00,
2013-01-20 13:24:00,55.5,22.4,30.16,WSW,253,4.0,9.8,27,0.00,,,0.00,WSDL version 420,2013-01-20 18:24:00,
2013-01-20 13:29:00,55.3,22.1,30.16,WSW,258,3.9,9.8,28,0.00,,,0.00,WSDL version 420,2013-01-20 18:29:00,
2013-01-20 13:34:00,55.1,21.6,30.16,East,98,4.1,11.9,26,0.00,,,0.00,WSDL version 420,2013-01-20 18:34:00,
2013-01-20 13:39:00,54.6,21.3,30.17,SE,138,3.8,11.9,27,0.00,,,0.00,WSDL version 420,2013-01-20 18:39:00,
2013-01-20 13:44:00,55.1,22.6,30.17,North,8,3.1,10.5,28,0.00,,,0.00,WSDL version 420,2013-01-20 18:44:00,
2013-01-20 13:49:00,54.6,21.3,30.16,South,177,2.6,8.1,27,0.00,,,0.00,WSDL version 420,2013-01-20 18:49:00,
2013-01-20 13:54:00,54.6,21.3,30.16,SW,215,4.4,8.1,26,0.00,,,0.00,WSDL version 420,2013-01-20 18:54:00,
2013-01-20 13:59:00,54.3,20.7,30.16,SSW,193,3.9,8.5,27,0.00,,,0.00,WSDL version 420,2013-01-20 18:59:00,
2013-01-20 14:04:00,53.9,20.0,30.17,NE,53,3.1,10.3,26,0.00,,,0.00,WSDL version 420,2013-01-20 19:04:00,
2013-01-20 14:09:00,53.7,19.7,30.16,WNW,303,3.9,10.3,26,0.00,,,0.00,WSDL version 420,2013-01-20 19:09:00,
2013-01-20 14:14:00,53.6,19.8,30.16,SW,231,5.6,9.8,27,0.00,,,0.00,WSDL version 420,2013-01-20 19:14:00,
2013-01-20 14:19:00,53.1,19.9,30.16,NNW,343,4.6,9.6,27,0.00,,,0.00,WSDL version 420,2013-01-20 19:19:00,
2013-01-20 14:24:00,53.1,20.0,30.17,East,84,2.9,9.6,27,0.00,,,0.00,WSDL version 420,2013-01-20 19:24:00,
2013-01-20 14:29:00,53.2,20.1,30.16,West,278,2.8,6.5,27,0.00,,,0.00,WSDL version 420,2013-01-20 19:29:00,
2013-01-20 14:34:00,53.3,20.2,30.16,West,264,3.8,6.7,27,0.00,,,0.00,WSDL version 420,2013-01-20 19:34:00,
2013-01-20 14:39:00,53.0,19.9,30.16,SW,217,5.4,11.0,27,0.00,,,0.00,WSDL version 420,2013-01-20 19:39:00,
2013-01-20 14:44:00,52.9,19.8,30.16,SW,215,3.1,11.0,27,0.00,,,0.00,WSDL version 420,2013-01-20 19:44:00,
2013-01-20 14:49:00,53.0,19.9,30.16,ESE,115,4.3,8.7,27,0.00,,,0.00,WSDL version 420,2013-01-20 19:49:00,
2013-01-20 14:54:00,52.7,19.5,30.16,West,275,4.1,7.6,27,0.00,,,0.00,WSDL version 420,2013-01-20 19:54:00,
2013-01-20 14:59:00,52.7,19.6,30.16,SE,132,2.9,7.6,27,0.00,,,0.00,WSDL version 420,2013-01-20 19:59:00,
2013-01-20 15:04:00,52.8,19.8,30.16,WNW,298,3.9,7.4,27,0.00,,,0.00,WSDL version 420,2013-01-20 20:04:00,
2013-01-20 15:09:00,52.5,19.5,30.16,WNW,298,5.3,8.1,27,0.00,,,0.00,WSDL version 420,2013-01-20 20:09:00,
2013-01-20 15:14:00,52.7,19.7,30.16,WSW,245,3.2,8.7,27,0.00,,,0.00,WSDL version 420,2013-01-20 20:14:00,
2013-01-20 15:19:00,52.8,19.7,30.16,West,281,2.2,8.7,27,0.00,,,0.00,WSDL version 420,2013-01-20 20:19:00,
2013-01-20 15:24:00,52.7,19.6,30.16,NW,323,4.6,9.4,27,0.00,,,0.00,WSDL version 420,2013-01-20 20:24:00,
2013-01-20 15:29:00,52.6,19.6,30.16,WSW,255,2.7,9.4,27,0.00,,,0.00,WSDL version 420,2013-01-20 20:29:00,
2013-01-20 15:34:00,52.9,19.8,30.16,WSW,255,2.1,8.1,27,0.00,,,0.00,WSDL version 420,2013-01-20 20:34:00,
2013-01-20 15:39:00,52.8,19.8,30.16,West,278,1.9,6.3,27,0.00,,,0.00,WSDL version 420,2013-01-20 20:39:00,
2013-01-20 15:44:00,52.6,19.3,30.16,SW,218,1.7,6.5,27,0.00,,,0.00,WSDL version 420,2013-01-20 20:44:00,
2013-01-20 15:49:00,52.6,19.3,30.16,SW,228,3.3,6.5,26,0.00,,,0.00,WSDL version 420,2013-01-20 20:49:00,
2013-01-20 15:54:00,52.4,18.9,30.16,West,280,3.7,6.5,26,0.00,,,0.00,WSDL version 420,2013-01-20 20:54:00,
2013-01-20 15:59:00,52.2,19.0,30.16,WNW,302,3.1,6.5,27,0.00,,,0.00,WSDL version 420,2013-01-20 20:59:00,
2013-01-20 16:04:00,51.7,18.8,30.16,WSW,258,4.7,7.8,27,0.00,,,0.00,WSDL version 420,2013-01-20 21:04:00,
2013-01-20 16:14:00,51.3,18.5,30.17,NW,318,3.7,7.4,27,0.00,,,0.00,WSDL version 420,2013-01-20 21:14:00,
2013-01-20 16:19:00,51.2,18.4,30.17,WSW,245,3.5,7.4,27,0.00,,,0.00,WSDL version 420,2013-01-20 21:19:00,
2013-01-20 16:24:00,50.9,18.1,30.17,SSW,193,2.6,6.7,27,0.00,,,0.00,WSDL version 420,2013-01-20 21:24:00,
2013-01-20 16:29:00,50.6,17.9,30.17,NW,320,3.2,6.7,27,0.00,,,0.00,WSDL version 420,2013-01-20 21:29:00,
2013-01-20 16:34:00,50.2,17.8,30.17,West,259,3.2,6.5,28,0.00,,,0.00,WSDL version 420,2013-01-20 21:34:00,
2013-01-20 16:39:00,50.0,17.3,30.17,SW,218,3.2,8.7,27,0.00,,,0.00,WSDL version 420,2013-01-20 21:39:00,
2013-01-20 16:44:00,49.7,17.9,30.17,West,281,2.9,8.7,28,0.00,,,0.00,WSDL version 420,2013-01-20 21:44:00,
2013-01-20 16:49:00,49.3,17.6,30.16,South,174,3.4,5.8,28,0.00,,,0.00,WSDL version 420,2013-01-20 21:49:00,
2013-01-20 16:54:00,49.0,17.3,30.17,WSW,255,3.5,7.8,28,0.00,,,0.00,WSDL version 420,2013-01-20 21:54:00,
2013-01-20 16:59:00,48.7,17.0,30.17,WSW,239,4.8,8.1,28,0.00,,,0.00,WSDL version 420,2013-01-20 21:59:00,
2013-01-20 17:04:00,48.2,16.7,30.17,NW,305,5.7,8.9,28,0.00,,,0.00,WSDL version 420,2013-01-20 22:04:00,
2013-01-20 17:09:00,47.9,17.2,30.17,WSW,248,4.0,10.7,29,0.00,,,0.00,WSDL version 420,2013-01-20 22:09:00,
2013-01-20 17:19:00,47.4,16.7,30.20,West,262,2.8,10.5,29,0.00,,,0.00,WSDL version 420,2013-01-20 22:19:00,
2013-01-20 17:24:00,47.2,16.9,30.20,NNW,335,3.5,6.5,30,0.00,,,0.00,WSDL version 420,2013-01-20 22:24:00,
2013-01-20 17:29:00,46.9,17.1,30.20,ENE,78,2.0,6.5,30,0.00,,,0.00,WSDL version 420,2013-01-20 22:29:00,
2013-01-20 17:39:00,46.2,17.3,30.17,North,350,1.1,4.3,31,0.00,,,0.00,WSDL version 420,2013-01-20 22:39:00,
2013-01-20 17:44:00,45.7,17.8,30.17,East,84,1.9,5.6,32,0.00,,,0.00,WSDL version 420,2013-01-20 22:44:00,
2013-01-20 17:49:00,45.5,17.5,30.21,South,190,0.5,5.6,33,0.00,,,0.00,WSDL version 420,2013-01-20 22:49:00,
2013-01-20 17:59:00,44.5,18.5,30.21,SSE,148,0.9,5.6,37,0.00,,,0.00,WSDL version 420,2013-01-20 22:59:00,
2013-01-20 18:04:00,44.3,19.0,30.21,NE,39,3.0,8.1,36,0.00,,,0.00,WSDL version 420,2013-01-20 23:04:00,
2013-01-20 18:09:00,44.2,19.0,30.21,SW,217,1.5,8.1,36,0.00,,,0.00,WSDL version 420,2013-01-20 23:09:00,
2013-01-20 18:14:00,44.1,19.5,30.21,WSW,248,2.0,4.9,36,0.00,,,0.00,WSDL version 420,2013-01-20 23:14:00,
2013-01-20 18:19:00,44.2,19.7,30.21,WNW,298,2.5,7.6,37,0.00,,,0.00,WSDL version 420,2013-01-20 23:19:00,
2013-01-20 18:24:00,44.1,19.6,30.21,NNW,345,1.4,7.6,37,0.00,,,0.00,WSDL version 420,2013-01-20 23:24:00,
2013-01-20 18:29:00,43.8,19.7,30.21,West,270,2.1,3.8,38,0.00,,,0.00,WSDL version 420,2013-01-20 23:29:00,
2013-01-20 18:39:00,43.6,19.7,30.21,West,260,0.9,4.0,38,0.00,,,0.00,WSDL version 420,2013-01-20 23:39:00,
2013-01-20 18:44:00,43.1,19.2,30.21,NW,309,2.3,4.0,38,0.00,,,0.00,WSDL version 420,2013-01-20 23:44:00,
2013-01-20 18:49:00,42.8,19.0,30.21,NNE,25,0.6,3.6,38,0.00,,,0.00,WSDL version 420,2013-01-20 23:49:00,
2013-01-20 18:54:00,42.9,19.0,30.21,NE,48,1.2,4.7,38,0.00,,,0.00,WSDL version 420,2013-01-20 23:54:00,
2013-01-20 19:04:00,42.5,19.3,30.21,West,276,2.1,7.4,39,0.00,,,0.00,WSDL version 420,2013-01-21 00:04:00,
2013-01-20 19:09:00,42.2,19.0,30.21,SSW,208,1.6,4.3,39,0.00,,,0.00,WSDL version 420,2013-01-21 00:09:00,
2013-01-20 19:14:00,41.8,18.7,30.21,WSW,253,1.5,4.0,39,0.00,,,0.00,WSDL version 420,2013-01-21 00:14:00,
2013-01-20 19:19:00,41.4,18.3,30.21,South,191,1.3,2.9,39,0.00,,,0.00,WSDL version 420,2013-01-21 00:19:00,
2013-01-20 19:24:00,41.4,18.3,30.21,WNW,293,0.2,3.1,39,0.00,,,0.00,WSDL version 420,2013-01-21 00:24:00,
2013-01-20 19:29:00,41.2,18.4,30.21,NW,321,1.2,3.1,40,0.00,,,0.00,WSDL version 420,2013-01-21 00:29:00,
2013-01-20 19:34:00,41.3,18.4,30.21,WNW,300,0.9,3.8,40,0.00,,,0.00,WSDL version 420,2013-01-21 00:34:00,
2013-01-20 19:39:00,40.6,18.2,30.21,West,262,0.0,3.8,40,0.00,,,0.00,WSDL version 420,2013-01-21 00:39:00,
2013-01-20 19:44:00,40.1,18.0,30.21,WSW,245,0.5,2.7,41,0.00,,,0.00,WSDL version 420,2013-01-21 00:44:00,
2013-01-20 19:49:00,39.8,18.0,30.21,WNW,298,1.0,2.7,41,0.00,,,0.00,WSDL version 420,2013-01-21 00:49:00,
2013-01-20 19:54:00,39.7,18.2,30.21,WNW,289,1.8,3.1,42,0.00,,,0.00,WSDL version 420,2013-01-21 00:54:00,
2013-01-20 19:59:00,39.3,18.0,30.21,WNW,295,0.2,3.1,42,0.00,,,0.00,WSDL version 420,2013-01-21 00:59:00,
2013-01-20 20:04:00,39.5,18.5,30.21,West,281,1.9,4.9,42,0.00,,,0.00,WSDL version 420,2013-01-21 01:04:00,
2013-01-20 20:09:00,39.6,18.7,30.21,NW,309,2.8,5.8,43,0.00,,,0.00,WSDL version 420,2013-01-21 01:09:00,
2013-01-20 20:14:00,39.4,18.2,30.21,WSW,239,1.7,5.8,42,0.00,,,0.00,WSDL version 420,2013-01-21 01:14:00,
2013-01-20 20:19:00,39.7,18.5,30.21,SSW,197,1.7,7.2,42,0.00,,,0.00,WSDL version 420,2013-01-21 01:19:00,
2013-01-20 20:24:00,40.1,18.7,30.21,WSW,245,2.2,7.2,41,0.00,,,0.00,WSDL version 420,2013-01-21 01:24:00,
2013-01-20 20:34:00,39.9,18.7,30.21,ENE,68,1.9,4.3,42,0.00,,,0.00,WSDL version 420,2013-01-21 01:34:00,
2013-01-20 20:39:00,39.7,18.6,30.21,South,180,2.5,3.8,43,0.00,,,0.00,WSDL version 420,2013-01-21 01:39:00,
2013-01-20 20:44:00,39.9,19.0,30.21,WSW,250,3.5,7.4,42,0.00,,,0.00,WSDL version 420,2013-01-21 01:44:00,
2013-01-20 20:49:00,40.0,18.8,30.21,West,270,1.9,7.4,42,0.00,,,0.00,WSDL version 420,2013-01-21 01:49:00,
2013-01-20 20:54:00,39.8,18.6,30.21,West,263,3.1,7.4,42,0.00,,,0.00,WSDL version 420,2013-01-21 01:54:00,
2013-01-20 20:59:00,39.7,18.5,30.21,West,260,1.4,7.4,42,0.00,,,0.00,WSDL version 420,2013-01-21 01:59:00,
2013-01-20 21:04:00,39.4,18.3,30.21,WNW,284,0.6,4.3,42,0.00,,,0.00,WSDL version 420,2013-01-21 02:04:00,
2013-01-20 21:09:00,39.3,18.1,30.21,West,264,0.7,4.3,42,0.00,,,0.00,WSDL version 420,2013-01-21 02:09:00,
2013-01-20 21:14:00,39.1,18.2,30.21,WNW,290,2.0,3.6,43,0.00,,,0.00,WSDL version 420,2013-01-21 02:14:00,
2013-01-20 21:19:00,38.6,18.0,30.21,West,280,1.9,3.6,43,0.00,,,0.00,WSDL version 420,2013-01-21 02:19:00,
2013-01-20 21:24:00,38.2,18.4,30.21,West,262,2.9,3.8,45,0.00,,,0.00,WSDL version 420,2013-01-21 02:24:00,
2013-01-20 21:29:00,38.0,18.3,30.21,WNW,285,1.7,4.0,45,0.00,,,0.00,WSDL version 420,2013-01-21 02:29:00,
2013-01-20 21:34:00,37.7,18.3,30.21,WNW,301,2.1,4.0,45,0.00,,,0.00,WSDL version 420,2013-01-21 02:34:00,
2013-01-20 21:39:00,37.3,17.9,30.21,WNW,284,1.4,3.4,45,0.00,,,0.00,WSDL version 420,2013-01-21 02:39:00,
2013-01-20 21:44:00,36.9,18.1,30.21,WNW,290,2.0,4.0,47,0.00,,,0.00,WSDL version 420,2013-01-21 02:44:00,
2013-01-20 21:49:00,36.6,18.2,30.21,NW,307,1.8,4.0,47,0.00,,,0.00,WSDL version 420,2013-01-21 02:49:00,
2013-01-20 21:54:00,36.3,18.3,30.21,West,281,2.0,3.8,48,0.00,,,0.00,WSDL version 420,2013-01-21 02:54:00,
2013-01-20 21:59:00,36.3,18.9,30.21,West,264,3.2,4.9,50,0.00,,,0.00,WSDL version 420,2013-01-21 02:59:00,
2013-01-20 22:04:00,36.2,19.3,30.21,WNW,288,3.0,4.9,49,0.00,,,0.00,WSDL version 420,2013-01-21 03:04:00,
2013-01-20 22:09:00,36.1,18.9,30.21,West,260,1.3,3.6,49,0.00,,,0.00,WSDL version 420,2013-01-21 03:09:00,
2013-01-20 22:14:00,35.8,18.8,30.21,WNW,300,2.4,3.6,50,0.00,,,0.00,WSDL version 420,2013-01-21 03:14:00,
2013-01-20 22:19:00,35.7,18.9,30.21,WNW,293,1.1,3.6,50,0.00,,,0.00,WSDL version 420,2013-01-21 03:19:00,
2013-01-20 22:24:00,35.5,18.9,30.21,WNW,286,2.0,3.4,51,0.00,,,0.00,WSDL version 420,2013-01-21 03:24:00,
2013-01-20 22:29:00,35.3,19.0,30.21,West,275,2.0,3.1,51,0.00,,,0.00,WSDL version 420,2013-01-21 03:29:00,
2013-01-20 22:34:00,35.2,18.9,30.21,West,278,1.8,2.9,51,0.00,,,0.00,WSDL version 420,2013-01-21 03:34:00,
2013-01-20 22:39:00,34.9,18.6,30.21,West,280,2.6,3.4,51,0.00,,,0.00,WSDL version 420,2013-01-21 03:39:00,
2013-01-20 22:49:00,34.6,18.8,30.21,WNW,287,3.0,3.4,52,0.00,,,0.00,WSDL version 420,2013-01-21 03:49:00,
2013-01-20 22:54:00,34.5,19.0,30.21,WNW,290,1.4,3.4,52,0.00,,,0.00,WSDL version 420,2013-01-21 03:54:00,
2013-01-20 22:59:00,34.3,18.5,30.21,WNW,284,1.7,2.7,52,0.00,,,0.00,WSDL version 420,2013-01-21 03:59:00,
2013-01-20 23:04:00,34.1,18.8,30.21,WNW,290,2.0,2.7,53,0.00,,,0.00,WSDL version 420,2013-01-21 04:04:00,
2013-01-20 23:09:00,34.0,18.7,30.21,WNW,290,2.5,3.4,53,0.00,,,0.00,WSDL version 420,2013-01-21 04:09:00,
2013-01-20 23:14:00,34.0,19.1,30.21,West,270,1.5,3.4,54,0.00,,,0.00,WSDL version 420,2013-01-21 04:14:00,
2013-01-20 23:19:00,33.8,18.9,30.21,West,270,2.2,2.9,54,0.00,,,0.00,WSDL version 420,2013-01-21 04:19:00,
2013-01-20 23:24:00,33.7,18.9,30.20,West,270,2.2,2.9,54,0.00,,,0.00,WSDL version 420,2013-01-21 04:24:00,
2013-01-20 23:29:00,33.6,18.7,30.20,WNW,293,2.1,2.9,54,0.00,,,0.00,WSDL version 420,2013-01-21 04:29:00,
2013-01-20 23:34:00,33.4,18.8,30.20,West,281,2.1,3.4,55,0.00,,,0.00,WSDL version 420,2013-01-21 04:34:00,
2013-01-20 23:39:00,33.4,19.1,30.20,West,270,1.4,3.4,56,0.00,,,0.00,WSDL version 420,2013-01-21 04:39:00,
2013-01-20 23:44:00,33.4,19.2,30.20,WNW,284,1.8,3.4,56,0.00,,,0.00,WSDL version 420,2013-01-21 04:44:00,
2013-01-20 23:49:00,33.3,19.3,30.17,West,267,2.1,3.4,56,0.00,,,0.00,WSDL version 420,2013-01-21 04:49:00,
2013-01-20 23:54:00,33.3,19.3,30.17,West,280,2.0,3.1,56,0.00,,,0.00,WSDL version 420,2013-01-21 04:54:00,
2013-01-20 23:59:00,33.2,19.4,30.17,WNW,293,1.8,2.9,56,0.00,,,0.00,WSDL version 420,2013-01-21 04:59:00,